QPF
0.00 0.00 0.00 0.00 0.00 0.00 0.00 0.00 0.00 0.00 0.00 0.00 0.00 0.00 0.00 0.00 0.00 0.00 0.00 0.01 0.01 0.01 0.01 0.01 0.01 0.01 0.02 0.03 0.03 0.04 0.05 0.07 0.13 0.16 0.18 0.21 0.17 0.16 0.18 0.19 0.19 0.17 0.19 0.23
0.00 0.00 0.00 0.00 0.00 0.00 0.00 0.00 0.00 0.00 0.00 0.00 0.00 0.00 0.00 0.01 0.01 0.01 0.01 0.01 0.01 0.01 0.01 0.01 0.01 0.02 0.02 0.02 0.02 0.02 0.03 0.04 0.07 0.10 0.11 0.11 0.10 0.09 0.11 0.14 0.14 0.15 0.17 0.21
0.00 0.00 0.00 0.00 0.00 0.00 0.00 0.00 0.00 0.00 0.00 0.00 0.00 0.00 0.00 0.00 0.01 0.01 0.01 0.01 0.01 0.02 0.02 0.01 0.01 0.01 0.01 0.01 0.01 0.01 0.01 0.03 0.04 0.05 0.05 0.05 0.05 0.04 0.06 0.09 0.09 0.11 0.13 0.15
0.00 0.00 0.00 0.00 0.00 0.00 0.00 0.00 0.00 0.00 0.00 0.00 0.00 0.00 0.00 0.00 0.01 0.01 0.01 0.02 0.02 0.02 0.02 0.01 0.01 0.01 0.01 0.01 0.01 0.01 0.01 0.01 0.02 0.03 0.03 0.03 0.03 0.02 0.03 0.04 0.04 0.04 0.05 0.07
0.00 0.00 0.00 0.00 0.00 0.00 0.00 0.00 0.00 0.00 0.00 0.00 0.00 0.00 0.00 0.00 0.00 0.01 0.01 0.01 0.02 0.01 0.01 0.01 0.01 0.01 0.00 0.00 0.00 0.00 0.01 0.01 0.01 0.01 0.02 0.01 0.01 0.01 0.01 0.01 0.01 0.02 0.02 0.03
0.00 0.00 0.00 0.00 0.00 0.00 0.00 0.00 0.00 0.00 0.00 0.00 0.00 0.00 0.00 0.00 0.00 0.00 0.01 0.01 0.01 0.01 0.01 0.01 0.00 0.00 0.00 0.00 0.00 0.00 0.00 0.00 0.00 0.00 0.00 0.00 0.00 0.00 0.00 0.00 0.00 0.00 0.01 0.01
0.00 0.00 0.00 0.00 0.00 0.00 0.00 0.00 0.00 0.00 0.00 0.00 0.00 0.00 0.00 0.00 0.00 0.00 0.01 0.01 0.01 0.01 0.00 0.00 0.00 0.00 0.00 0.00 0.00 0.00 0.00 0.00 0.00 0.00 0.00 0.00 0.00 0.00 0.00 0.00 0.00 0.00 0.00 0.00
0.00 0.00 0.00 0.00 0.00 0.00 0.00 0.00 0.00 0.00 0.00 0.00 0.00 0.00 0.00 0.00 0.00 0.00 0.00 0.00 0.00 0.00 0.00 0.00 0.00 0.00 0.00 0.00 0.00 0.00 0.00 0.00 0.00 0.00 0.00 0.00 0.00 0.00 0.00 0.00 0.00 0.00 0.00 0.00
0.00 0.00 0.00 0.00 0.00 0.00 0.00 0.00 0.00 0.00 0.00 0.00 0.00 0.00 0.00 0.00 0.00 0.00 0.00 0.00 0.00 0.00 0.00 0.00 0.00 0.00 0.00 0.00 0.00 0.00 0.00 0.00 0.00 0.00 0.00 0.00 0.00 0.00 0.00 0.00 0.00 0.00 0.00 0.00
0.00 0.00 0.00 0.00 0.00 0.00 0.01 0.01 0.00 0.00 0.00 0.00 0.00 0.00 0.00 0.00 0.00 0.00 0.00 0.00 0.00 0.00 0.00 0.00 0.00 0.00 0.00 0.00 0.00 0.00 0.00 0.00 0.00 0.00 0.00 0.00 0.00 0.00 0.00 0.00 0.00 0.00 0.00 0.00
0.00 0.00 0.00 0.00 0.00 0.00 0.00 0.00 0.00 0.00 0.00 0.00 0.00 0.00 0.00 0.00 0.00 0.00 0.00 0.00 0.00 0.00 0.00 0.00 0.00 0.00 0.00 0.00 0.00 0.00 0.00 0.00 0.00 0.01 0.00 0.00 0.00 0.00 0.00 0.00 0.00 0.00 0.00 0.00
0.00 0.00 0.00 0.00 0.00 0.00 0.00 0.00 0.00 0.00 0.00 0.00 0.00 0.00 0.00 0.00 0.00 0.00 0.00 0.00 0.00 0.00 0.00 0.00 0.00 0.00 0.00 0.00 0.00 0.00 0.00 0.00 0.01 0.01 0.01 0.00 0.00 0.00 0.00 0.00 0.00 0.00 0.00 0.00
0.00 0.00 0.00 0.00 0.00 0.00 0.00 0.00 0.00 0.00 0.00 0.00 0.01 0.01 0.00 0.00 0.00 0.00 0.00 0.00 0.00 0.00 0.00 0.00 0.00 0.00 0.00 0.00 0.00 0.00 0.00 0.01 0.01 0.00 0.00 0.00 0.00 0.00 0.00 0.00 0.00 0.00 0.00 0.00
0.00 0.00 0.00 0.00 0.00 0.00 0.00 0.00 0.00 0.00 0.00 0.00 0.01 0.00 0.00 0.00 0.00 0.00 0.00 0.00 0.00 0.00 0.00 0.00 0.00 0.00 0.00 0.00 0.00 0.00 0.00 0.00 0.00 0.00 0.00 0.00 0.00 0.00 0.00 0.00 0.00 0.00 0.00 0.00
0.00 0.00 0.00 0.00 0.00 0.00 0.00 0.00 0.00 0.00 0.00 0.00 0.00 0.00 0.00 0.00 0.00 0.00 0.00 0.00 0.00 0.00 0.00 0.00 0.00 0.00 0.00 0.00 0.00 0.00 0.00 0.00 0.00 0.00 0.00 0.00 0.00 0.00 0.00 0.00 0.00 0.00 0.00 0.00
0.00 0.00 0.00 0.00 0.00 0.00 0.00 0.00 0.00 0.00 0.00 0.00 0.00 0.01 0.01 0.00 0.00 0.00 0.00 0.00 0.00 0.00 0.00 0.00 0.00 0.00 0.00 0.00 0.00 0.00 0.00 0.00 0.00 0.01 0.00 0.01 0.01 0.01 0.01 0.01 0.01 0.00 0.00 0.00
0.00 0.00 0.00 0.00 0.00 0.00 0.00 0.00 0.00 0.01 0.01 0.01 0.01 0.01 0.01 0.01 0.00 0.01 0.01 0.01 0.01 0.00 0.00 0.00 0.00 0.00 0.00 0.00 0.00 0.00 0.00 0.00 0.01 0.01 0.01 0.01 0.01 0.01 0.02 0.02 0.01 0.01 0.00 0.00
0.00 0.00 0.00 0.00 0.00 0.00 0.00 0.00 0.00 0.01 0.01 0.02 0.02 0.02 0.02 0.02 0.02 0.03 0.03 0.02 0.02 0.01 0.01 0.00 0.00 0.00 0.00 0.00 0.00 0.00 0.00 0.01 0.01 0.02 0.02 0.03 0.03 0.03 0.03 0.03 0.02 0.01 0.01 0.00
0.00 0.00 0.00 0.00 0.00 0.00 0.00 0.01 0.01 0.02 0.02 0.02 0.03 0.04 0.04 0.04 0.04 0.03 0.02 0.01 0.01 0.00 0.00 0.00 0.00 0.00 0.00 0.00 0.00 0.00 0.00 0.01 0.02 0.03 0.04 0.04 0.05 0.05 0.05 0.04 0.04 0.03 0.02 0.01
0.00 0.00 0.00 0.00 0.00 0.01 0.01 0.02 0.03 0.04 0.07 0.06 0.05 0.04 0.02 0.01 0.01 0.01 0.00 0.00 0.00 0.00 0.00 0.00 0.00 0.00 0.00 0.00 0.00 0.00 0.00 0.01 0.02 0.03 0.04 0.05 0.06 0.07 0.06 0.06 0.06 0.05 0.03 0.01
0.00 0.00 0.00 0.00 0.01 0.01 0.01 0.02 0.03 0.05 0.06 0.02 0.01 0.01 0.01 0.01 0.00 0.00 0.00 0.00 0.00 0.00 0.00 0.00 0.00 0.00 0.00 0.00 0.00 0.00 0.00 0.01 0.01 0.02 0.03 0.05 0.06 0.07 0.08 0.09 0.09 0.07 0.05 0.03
0.00 0.00 0.00 0.01 0.01 0.02 0.01 0.00 0.01 0.01 0.01 0.01 0.01 0.01 0.01 0.00 0.00 0.00 0.00 0.00 0.00 0.00 0.00 0.00 0.00 0.00 0.00 0.00 0.00 0.00 0.00 0.01 0.01 0.02 0.03 0.05 0.07 0.09 0.10 0.11 0.12 0.11 0.08 0.05
0.00 0.00 0.00 0.01 0.01 0.01 0.01 0.01 0.01 0.01 0.01 0.01 0.01 0.00 0.00 0.00 0.00 0.00 0.00 0.00 0.00 0.00 0.00 0.00 0.00 0.00 0.00 0.00 0.00 0.00 0.00 0.00 0.01 0.01 0.03 0.05 0.08 0.11 0.14 0.15 0.16 0.17 0.14 0.07
0.00 0.00 0.00 0.00 0.00 0.01 0.01 0.01 0.01 0.01 0.00 0.00 0.00 0.00 0.00 0.00 0.00 0.00 0.00 0.00 0.00 0.00 0.00 0.00 0.00 0.00 0.00 0.00 0.00 0.00 0.00 0.00 0.01 0.02 0.03 0.06 0.09 0.12 0.14 0.17 0.20 0.22 0.20 0.11
0.00 0.00 0.01 0.01 0.01 0.01 0.01 0.01 0.00 0.00 0.00 0.00 0.00 0.00 0.00 0.00 0.00 0.00 0.00 0.00 0.00 0.00 0.00 0.00 0.00 0.00 0.00 0.00 0.00 0.00 0.00 0.00 0.01 0.02 0.03 0.06 0.10 0.15 0.18 0.19 0.20 0.21 0.20 0.14
0.00 0.00 0.01 0.01 0.01 0.01 0.01 0.00 0.00 0.00 0.00 0.00 0.00 0.00 0.00 0.00 0.00 0.00 0.00 0.00 0.00 0.00 0.00 0.00 0.00 0.00 0.00 0.00 0.00 0.00 0.00 0.01 0.01 0.01 0.03 0.05 0.10 0.17 0.21 0.21 0.22 0.22 0.21 0.16
MSLP
1012.65 1013.23 1013.64 1013.86 1013.93 1013.90 1013.80 1013.69 1013.56 1013.44 1013.31 1013.14 1012.94 1012.69 1012.41 1012.12 1011.86 1011.63 1011.46 1011.33 1011.23 1011.13 1011.00 1010.83 1010.63 1010.40 1010.19 1010.03 1009.96 1010.01 1010.18 1010.45 1010.78 1011.11 1011.39 1011.57 1011.62 1011.54 1011.33 1011.03 1010.68 1010.33 1010.01 1009.75
1012.86 1013.30 1013.57 1013.70 1013.75 1013.75 1013.77 1013.81 1013.89 1013.97 1014.01 1013.99 1013.86 1013.63 1013.31 1012.93 1012.55 1012.21 1011.93 1011.72 1011.56 1011.43 1011.30 1011.13 1010.91 1010.67 1010.43 1010.22 1010.09 1010.08 1010.20 1010.43 1010.73 1011.05 1011.33 1011.52 1011.58 1011.49 1011.27 1010.94 1010.56 1010.16 1009.80 1009.49
1012.89 1013.16 1013.30 1013.37 1013.41 1013.49 1013.65 1013.89 1014.19 1014.48 1014.71 1014.80 1014.74 1014.49 1014.10 1013.61 1013.09 1012.61 1012.21 1011.90 1011.70 1011.55 1011.42 1011.28 1011.09 1010.87 1010.62 1010.40 1010.25 1010.21 1010.29 1010.49 1010.77 1011.08 1011.36 1011.56 1011.63 1011.55 1011.32 1010.98 1010.57 1010.14 1009.73 1009.37
1012.81 1012.92 1012.95 1012.97 1013.04 1013.23 1013.55 1014.00 1014.52 1015.02 1015.41 1015.61 1015.58 1015.30 1014.81 1014.19 1013.51 1012.88 1012.35 1011.95 1011.68 1011.52 1011.41 1011.29 1011.15 1010.96 1010.75 1010.54 1010.39 1010.33 1010.40 1010.58 1010.85 1011.15 1011.44 1011.65 1011.73 1011.67 1011.45 1011.11 1010.69 1010.24 1009.79 1009.38
1012.73 1012.71 1012.65 1012.64 1012.76 1013.05 1013.55 1014.20 1014.93 1015.61 1016.14 1016.43 1016.41 1016.09 1015.50 1014.74 1013.91 1013.12 1012.46 1011.96 1011.63 1011.44 1011.33 1011.24 1011.14 1010.99 1010.81 1010.62 1010.48 1010.42 1010.47 1010.64 1010.90 1011.21 1011.51 1011.74 1011.84 1011.80 1011.61 1011.29 1010.87 1010.41 1009.94 1009.48
1012.76 1012.62 1012.50 1012.48 1012.65 1013.06 1013.71 1014.54 1015.43 1016.27 1016.91 1017.26 1017.24 1016.87 1016.19 1015.31 1014.34 1013.42 1012.64 1012.04 1011.64 1011.40 1011.28 1011.20 1011.12 1010.99 1010.83 1010.66 1010.52 1010.45 1010.50 1010.66 1010.91 1011.22 1011.52 1011.77 1011.90 1011.89 1011.73 1011.44 1011.05 1010.59 1010.11 1009.63
1012.95 1012.73 1012.56 1012.55 1012.77 1013.28 1014.04 1015.00 1016.02 1016.96 1017.67 1018.05 1018.04 1017.63 1016.89 1015.92 1014.86 1013.84 1012.96 1012.27 1011.81 1011.52 1011.36 1011.26 1011.16 1011.03 1010.86 1010.69 1010.53 1010.45 1010.48 1010.62 1010.85 1011.15 1011.46 1011.71 1011.87 1011.89 1011.77 1011.51 1011.15 1010.72 1010.24 1009.75
1013.27 1013.01 1012.83 1012.83 1013.10 1013.67 1014.50 1015.52 1016.61 1017.60 1018.35 1018.74 1018.73 1018.31 1017.55 1016.54 1015.44 1014.37 1013.43 1012.69 1012.17 1011.82 1011.61 1011.47 1011.33 1011.16 1010.96 1010.75 1010.57 1010.45 1010.44 1010.55 1010.75 1011.02 1011.31 1011.56 1011.72 1011.77 1011.68 1011.46 1011.14 1010.73 1010.28 1009.79
1013.66 1013.40 1013.23 1013.26 1013.55 1014.14 1014.99 1016.02 1017.11 1018.09 1018.84 1019.23 1019.23 1018.83 1018.08 1017.10 1016.02 1014.96 1014.02 1013.26 1012.70 1012.31 1012.04 1011.83 1011.63 1011.41 1011.16 1010.90 1010.67 1010.50 1010.44 1010.49 1010.64 1010.86 1011.10 1011.32 1011.47 1011.52 1011.44 1011.25 1010.96 1010.60 1010.18 1009.71
1014.02 1013.80 1013.67 1013.72 1014.03 1014.60 1015.42 1016.40 1017.43 1018.36 1019.06 1019.45 1019.46 1019.10 1018.42 1017.52 1016.52 1015.53 1014.65 1013.91 1013.34 1012.92 1012.61 1012.34 1012.07 1011.79 1011.47 1011.15 1010.86 1010.64 1010.51 1010.48 1010.56 1010.70 1010.88 1011.03 1011.14 1011.15 1011.07 1010.89 1010.63 1010.30 1009.93 1009.51
1014.25 1014.10 1014.03 1014.12 1014.42 1014.95 1015.70 1016.58 1017.51 1018.34 1018.98 1019.34 1019.37 1019.07 1018.50 1017.73 1016.86 1016.00 1015.21 1014.54 1014.00 1013.58 1013.23 1012.91 1012.59 1012.25 1011.88 1011.50 1011.16 1010.86 1010.66 1010.55 1010.53 1010.58 1010.65 1010.71 1010.74 1010.70 1010.59 1010.40 1010.16 1009.87 1009.54 1009.18
1014.30 1014.26 1014.26 1014.39 1014.68 1015.16 1015.81 1016.58 1017.37 1018.09 1018.64 1018.97 1019.01 1018.79 1018.34 1017.72 1017.01 1016.30 1015.64 1015.06 1014.58 1014.17 1013.82 1013.47 1013.12 1012.73 1012.32 1011.90 1011.51 1011.16 1010.89 1010.69 1010.56 1010.49 1010.44 1010.39 1010.32 1010.20 1010.04 1009.83 1009.60 1009.34 1009.07 1008.78
1014.21 1014.28 1014.37 1014.54 1014.83 1015.26 1015.81 1016.44 1017.10 1017.69 1018.15 1018.43 1018.50 1018.35 1018.01 1017.54 1017.00 1016.44 1015.91 1015.44 1015.02 1014.65 1014.30 1013.95 1013.57 1013.17 1012.74 1012.29 1011.87 1011.48 1011.14 1010.85 1010.62 1010.43 1010.25 1010.07 1009.89 1009.68 1009.46 1009.23 1009.00 1008.78 1008.57 1008.36
1014.06 1014.24 1014.41 1014.63 1014.93 1015.31 1015.77 1016.29 1016.81 1017.28 1017.66 1017.89 1017.96 1017.87 1017.63 1017.29 1016.89 1016.47 1016.05 1015.67 1015.31 1014.97 1014.63 1014.28 1013.90 1013.49 1013.06 1012.61 1012.17 1011.74 1011.35 1010.99 1010.66 1010.35 1010.05 1009.75 1009.45 1009.16 1008.88 1008.63 1008.41 1008.23 1008.08 1007.96
1013.99 1014.25 1014.50 1014.77 1015.07 1015.42 1015.81 1016.23 1016.65 1017.01 1017.30 1017.49 1017.55 1017.49 1017.33 1017.08 1016.77 1016.44 1016.11 1015.78 1015.46 1015.14 1014.80 1014.45 1014.07 1013.66 1013.23 1012.79 1012.34 1011.90 1011.47 1011.05 1010.64 1010.23 1009.82 1009.42 1009.03 1008.66 1008.33 1008.06 1007.86 1007.72 1007.64 1007.59
1014.10 1014.43 1014.74 1015.04 1015.36 1015.69 1016.03 1016.38 1016.70 1016.99 1017.21 1017.34 1017.38 1017.33 1017.19 1016.99 1016.73 1016.45 1016.14 1015.83 1015.51 1015.17 1014.83 1014.46 1014.08 1013.67 1013.25 1012.81 1012.37 1011.92 1011.46 1010.99 1010.52 1010.03 1009.54 1009.06 1008.59 1008.17 1007.81 1007.54 1007.35 1007.25 1007.23 1007.27
1014.49 1014.85 1015.19 1015.52 1015.84 1016.16 1016.47 1016.76 1017.03 1017.25 1017.41 1017.49 1017.50 1017.42 1017.28 1017.07 1016.81 1016.51 1016.19 1015.85 1015.49 1015.12 1014.74 1014.34 1013.94 1013.52 1013.10 1012.66 1012.22 1011.77 1011.29 1010.80 1010.28 1009.74 1009.19 1008.65 1008.14 1007.69 1007.31 1007.04 1006.87 1006.81 1006.83 1006.93
1015.18 1015.53 1015.87 1016.20 1016.52 1016.83 1017.11 1017.37 1017.59 1017.76 1017.86 1017.89 1017.85 1017.73 1017.54 1017.29 1016.98 1016.63 1016.25 1015.85 1015.43 1014.99 1014.55 1014.12 1013.68 1013.24 1012.81 1012.37 1011.93 1011.47 1010.99 1010.48 1009.94 1009.37 1008.79 1008.21 1007.67 1007.20 1006.81 1006.54 1006.38 1006.33 1006.39 1006.52
1016.11 1016.43 1016.74 1017.05 1017.35 1017.63 1017.88 1018.11 1018.28 1018.40 1018.45 1018.43 1018.33 1018.15 1017.89 1017.57 1017.19 1016.76 1016.30 1015.81 1015.31 1014.80 1014.30 1013.80 1013.33 1012.86 1012.41 1011.97 1011.53 1011.07 1010.58 1010.06 1009.51 1008.93 1008.33 1007.74 1007.18 1006.69 1006.29 1006.00 1005.83 1005.78 1005.84 1005.99
1017.17 1017.44 1017.71 1017.97 1018.22 1018.46 1018.68 1018.85 1018.98 1019.04 1019.03 1018.94 1018.77 1018.52 1018.18 1017.78 1017.32 1016.81 1016.26 1015.69 1015.11 1014.53 1013.97 1013.43 1012.91 1012.42 1011.95 1011.50 1011.05 1010.59 1010.11 1009.59 1009.04 1008.45 1007.85 1007.24 1006.67 1006.15 1005.72 1005.40 1005.20 1005.12 1005.16 1005.30
1018.24 1018.46 1018.66 1018.86 1019.05 1019.23 1019.38 1019.49 1019.55 1019.54 1019.46 1019.29 1019.04 1018.71 1018.30 1017.81 1017.27 1016.69 1016.07 1015.43 1014.79 1014.16 1013.55 1012.97 1012.42 1011.91 1011.44 1010.98 1010.53 1010.08 1009.60 1009.09 1008.54 1007.96 1007.35 1006.73 1006.13 1005.57 1005.10 1004.72 1004.47 1004.34 1004.33 1004.44
1019.23 1019.38 1019.52 1019.65 1019.76 1019.85 1019.91 1019.94 1019.90 1019.81 1019.63 1019.38 1019.04 1018.62 1018.14 1017.58 1016.98 1016.34 1015.67 1014.99 1014.32 1013.66 1013.03 1012.43 1011.87 1011.35 1010.87 1010.42 1009.97 1009.53 1009.07 1008.57 1008.03 1007.45 1006.83 1006.20 1005.57 1004.97 1004.43 1003.98 1003.65 1003.45 1003.38 1003.45
1020.05 1020.15 1020.22 1020.27 1020.29 1020.28 1020.23 1020.15 1020.00 1019.80 1019.52 1019.16 1018.73 1018.24 1017.68 1017.07 1016.42 1015.75 1015.06 1014.36 1013.68 1013.02 1012.38 1011.79 1011.23 1010.72 1010.24 1009.80 1009.37 1008.94 1008.50 1008.02 1007.50 1006.92 1006.31 1005.65 1004.99 1004.33 1003.73 1003.20 1002.78 1002.50 1002.36 1002.39
1020.67 1020.73 1020.74 1020.70 1020.62 1020.50 1020.33 1020.12 1019.85 1019.52 1019.13 1018.67 1018.15 1017.58 1016.96 1016.31 1015.63 1014.94 1014.25 1013.56 1012.89 1012.24 1011.62 1011.03 1010.49 1009.99 1009.53 1009.10 1008.69 1008.28 1007.87 1007.41 1006.91 1006.36 1005.74 1005.08 1004.38 1003.68 1003.01 1002.40 1001.90 1001.54 1001.35 1001.33
1021.10 1021.12 1021.06 1020.94 1020.76 1020.52 1020.24 1019.90 1019.50 1019.04 1018.53 1017.97 1017.36 1016.72 1016.05 1015.37 1014.68 1013.99 1013.31 1012.63 1011.98 1011.35 1010.75 1010.18 1009.65 1009.16 1008.71 1008.29 1007.90 1007.52 1007.14 1006.72 1006.25 1005.72 1005.13 1004.46 1003.76 1003.02 1002.30 1001.64 1001.07 1000.65 1000.40 1000.36
1021.35 1021.33 1021.21 1021.00 1020.73 1020.38 1019.98 1019.52 1019.00 1018.43 1017.81 1017.16 1016.48 1015.78 1015.07 1014.37 1013.67 1012.98 1012.30 1011.65 1011.01 1010.38 1009.79 1009.22 1008.69 1008.21 1007.76 1007.36 1006.99 1006.63 1006.28 1005.90 1005.48 1005.00 1004.44 1003.80 1003.10 1002.37 1001.63 1000.93 1000.33 999.86 999.59 999.53
Thickness
5753 5740 5734 5741 5746 5751 5750 5746 5745 5758 5774 5769 5763 5765 5773 5782 5782 5780 5779 5779 5778 5779 5783 5784 5784 5783 5779 5776 5772 5768 5763 5759 5756 5750 5745 5742 5740 5741 5740 5739 5738 5737 5736 5736
5735 5733 5748 5755 5754 5749 5745 5741 5744 5755 5767 5762 5755 5755 5764 5769 5770 5771 5770 5770 5770 5771 5773 5774 5774 5774 5770 5767 5764 5761 5756 5753 5750 5746 5743 5740 5737 5736 5735 5733 5732 5731 5731 5730
5734 5744 5759 5756 5750 5744 5743 5741 5744 5747 5753 5752 5749 5739 5747 5757 5761 5764 5765 5765 5765 5765 5764 5765 5766 5765 5763 5760 5758 5756 5751 5748 5745 5741 5737 5733 5729 5727 5725 5723 5723 5723 5722 5722
5741 5753 5757 5753 5749 5746 5736 5751 5750 5746 5734 5722 5731 5711 5731 5739 5745 5750 5754 5756 5757 5759 5759 5758 5758 5757 5756 5755 5753 5749 5745 5742 5738 5734 5729 5725 5720 5716 5715 5714 5713 5713 5713 5713
5739 5752 5752 5748 5752 5754 5746 5750 5742 5735 5727 5714 5715 5705 5713 5730 5733 5740 5746 5750 5752 5753 5753 5753 5753 5752 5751 5749 5746 5743 5739 5736 5732 5728 5724 5719 5714 5711 5708 5706 5705 5704 5704 5703
5745 5757 5757 5755 5758 5757 5751 5737 5724 5711 5703 5693 5706 5701 5701 5715 5727 5735 5742 5745 5747 5748 5749 5748 5749 5747 5745 5743 5740 5737 5733 5729 5726 5722 5718 5713 5708 5704 5700 5698 5695 5694 5693 5693
5731 5743 5755 5761 5749 5746 5737 5712 5687 5683 5674 5681 5700 5696 5698 5721 5729 5733 5736 5739 5741 5742 5741 5740 5739 5738 5737 5735 5733 5730 5726 5723 5720 5716 5711 5707 5703 5698 5694 5691 5688 5686 5684 5684
5713 5713 5742 5753 5746 5735 5731 5713 5684 5673 5668 5677 5692 5692 5706 5723 5728 5732 5733 5733 5733 5731 5731 5731 5731 5731 5729 5728 5726 5723 5719 5716 5713 5709 5706 5702 5697 5693 5688 5685 5681 5679 5677 5676
5713 5715 5744 5751 5752 5743 5724 5710 5707 5684 5679 5671 5680 5696 5709 5719 5720 5720 5721 5721 5720 5720 5721 5720 5721 5720 5720 5720 5719 5716 5713 5710 5707 5703 5700 5696 5692 5687 5683 5679 5676 5672 5670 5669
5729 5717 5733 5740 5745 5739 5731 5711 5690 5678 5666 5662 5675 5681 5680 5692 5696 5701 5703 5703 5705 5707 5709 5710 5710 5710 5710 5709 5709 5708 5706 5703 5700 5697 5693 5690 5686 5682 5678 5673 5670 5667 5664 5662
5734 5714 5717 5723 5722 5718 5719 5706 5687 5672 5670 5659 5656 5667 5685 5682 5683 5685 5688 5691 5692 5694 5695 5696 5696 5697 5698 5698 5698 5697 5695 5693 5691 5689 5686 5683 5680 5676 5672 5668 5665 5661 5658 5655
5724 5706 5697 5709 5723 5725 5720 5711 5690 5679 5672 5660 5653 5658 5683 5679 5677 5677 5677 5680 5681 5681 5681 5682 5683 5684 5685 5684 5684 5683 5683 5682 5681 5680 5679 5676 5673 5669 5666 5662 5659 5656 5652 5650
5722 5704 5688 5690 5701 5714 5713 5709 5697 5679 5666 5652 5648 5658 5674 5671 5669 5668 5667 5668 5669 5669 5670 5670 5670 5669 5669 5669 5670 5670 5670 5671 5671 5671 5670 5669 5666 5663 5660 5657 5654 5650 5647 5644
5729 5705 5694 5687 5691 5701 5701 5701 5693 5675 5661 5655 5657 5659 5659 5657 5656 5656 5656 5656 5657 5657 5657 5657 5656 5655 5655 5655 5656 5657 5658 5659 5660 5661 5661 5660 5659 5657 5655 5652 5648 5644 5641 5638
5727 5708 5704 5702 5705 5702 5697 5692 5687 5677 5669 5659 5658 5651 5647 5647 5646 5646 5646 5646 5647 5646 5645 5644 5642 5642 5642 5643 5643 5644 5644 5646 5647 5648 5650 5652 5652 5651 5648 5645 5642 5638 5635 5632
5718 5710 5704 5701 5705 5699 5688 5683 5678 5669 5663 5656 5649 5642 5643 5642 5640 5637 5635 5635 5633 5632 5631 5630 5629 5628 5627 5626 5627 5628 5629 5631 5632 5635 5638 5641 5642 5642 5640 5638 5635 5632 5629 5626
5705 5699 5690 5683 5691 5690 5670 5667 5663 5653 5648 5645 5635 5630 5631 5628 5627 5624 5623 5621 5618 5616 5615 5613 5611 5610 5610 5609 5609 5610 5612 5614 5616 5619 5623 5626 5629 5631 5631 5630 5627 5626 5623 5620
5698 5688 5677 5673 5681 5666 5655 5662 5657 5644 5635 5632 5627 5622 5619 5615 5615 5614 5611 5606 5603 5600 5598 5596 5595 5594 5594 5593 5593 5593 5594 5595 5598 5601 5605 5609 5613 5617 5620 5620 5620 5619 5617 5614
5696 5685 5669 5662 5661 5655 5650 5649 5642 5634 5625 5618 5613 5611 5608 5606 5605 5604 5601 5594 5588 5584 5581 5579 5577 5576 5575 5575 5575 5575 5575 5576 5578 5582 5586 5591 5595 5600 5605 5609 5611 5612 5610 5609
5687 5679 5665 5656 5655 5644 5631 5636 5638 5629 5614 5607 5603 5598 5594 5590 5582 5584 5585 5579 5575 5571 5567 5564 5562 5558 5556 5555 5553 5552 5554 5555 5557 5562 5566 5571 5576 5581 5589 5596 5601 5603 5604 5604
5668 5660 5651 5644 5641 5630 5621 5627 5629 5609 5598 5595 5591 5585 5579 5570 5565 5567 5564 5559 5555 5551 5548 5545 5542 5539 5537 5536 5533 5532 5533 5535 5539 5543 5547 5552 5557 5564 5572 5581 5589 5594 5596 5596
5649 5645 5639 5633 5628 5618 5613 5612 5600 5590 5589 5584 5579 5573 5565 5559 5556 5552 5547 5542 5537 5533 5529 5525 5521 5521 5519 5516 5513 5514 5516 5519 5521 5524 5528 5533 5539 5546 5557 5565 5575 5583 5588 5590
5635 5629 5626 5619 5611 5605 5604 5598 5593 5586 5577 5572 5565 5560 5553 5546 5541 5536 5530 5525 5521 5516 5513 5509 5506 5506 5505 5503 5500 5500 5504 5506 5508 5510 5513 5518 5524 5531 5539 5549 5560 5571 5579 5584
5627 5625 5618 5610 5604 5601 5597 5592 5585 5578 5568 5562 5554 5547 5539 5531 5527 5521 5515 5511 5506 5503 5500 5497 5495 5495 5496 5495 5493 5492 5494 5496 5497 5499 5502 5506 5510 5517 5525 5535 5548 5560 5570 5578
5614 5615 5608 5599 5596 5593 5590 5584 5576 5569 5561 5553 5546 5537 5527 5519 5514 5508 5504 5500 5497 5495 5493 5489 5487 5488 5489 5489 5488 5488 5488 5487 5488 5490 5493 5496 5500 5506 5514 5524 5536 5548 5561 5572
5610 5605 5599 5591 5589 5579 5576 5573 5566 5557 5549 5542 5533 5525 5517 5508 5502 5499 5496 5493 5490 5489 5488 5486 5485 5485 5486 5485 5484 5484 5482 5481 5481 5483 5485 5487 5490 5496 5503 5513 5527 5541 5552 5563